Time,TemperatureF,DewpointF,PressureIn,WindDirection,WindDirectionDegrees,WindSpeedMPH,WindSpeedGustMPH,Humidity,HourlyPrecipIn,Conditions,Clouds,dailyrainin,SoftwareType,DateUTC
2015-08-30 00:04:00,74.2,67.6,30.01,East,88,0.0,3.0,80,0.00,,,0.02,Wunderground v.1.13,2015-08-30 04:04:00,
2015-08-30 00:10:00,74.0,67.4,30.02,East,88,0.0,3.0,80,0.00,,,0.00,Wunderground v.1.13,2015-08-30 04:10:00,
2015-08-30 00:16:00,74.0,67.4,30.02,East,88,0.0,3.0,80,0.00,,,0.00,Wunderground v.1.13,2015-08-30 04:16:00,
2015-08-30 00:22:00,74.0,67.4,30.01,East,88,0.0,3.0,80,0.00,,,0.00,Wunderground v.1.13,2015-08-30 04:22:00,
2015-08-30 00:28:00,74.0,67.4,30.01,East,88,0.0,3.0,80,0.00,,,0.00,Wunderground v.1.13,2015-08-30 04:28:00,
2015-08-30 00:34:00,74.0,67.4,30.01,East,88,0.0,3.0,80,0.00,,,0.00,Wunderground v.1.13,2015-08-30 04:34:00,
2015-08-30 00:40:00,74.2,67.3,30.01,East,88,0.0,3.0,79,0.00,,,0.00,Wunderground v.1.13,2015-08-30 04:40:00,
2015-08-30 00:46:00,74.4,67.5,30.01,East,88,0.0,3.0,79,0.00,,,0.00,Wunderground v.1.13,2015-08-30 04:46:00,
2015-08-30 00:52:00,74.6,66.9,30.02,East,88,0.0,3.0,77,0.00,,,0.00,Wunderground v.1.13,2015-08-30 04:52:00,
2015-08-30 00:58:00,74.7,67.0,30.02,East,88,0.0,3.0,77,0.00,,,0.00,Wunderground v.1.13,2015-08-30 04:58:00,
2015-08-30 01:04:00,74.9,66.8,30.02,East,88,0.0,3.0,76,0.00,,,0.00,Wunderground v.1.13,2015-08-30 05:04:00,
2015-08-30 01:10:00,74.7,66.6,30.02,East,88,0.0,3.0,76,0.00,,,0.00,Wunderground v.1.13,2015-08-30 05:10:00,
2015-08-30 01:16:00,74.9,66.8,30.02,East,88,0.0,3.0,76,0.00,,,0.00,Wunderground v.1.13,2015-08-30 05:16:00,
2015-08-30 01:22:00,74.7,66.6,30.02,East,88,0.0,3.0,76,0.00,,,0.00,Wunderground v.1.13,2015-08-30 05:22:00,
2015-08-30 01:28:00,74.6,66.5,30.02,East,88,0.0,3.0,76,0.00,,,0.00,Wunderground v.1.13,2015-08-30 05:28:00,
2015-08-30 01:34:00,74.6,66.5,30.02,East,88,0.0,3.0,76,0.00,,,0.00,Wunderground v.1.13,2015-08-30 05:34:00,
2015-08-30 01:40:00,74.2,66.5,30.02,East,88,0.0,3.0,77,0.00,,,0.00,Wunderground v.1.13,2015-08-30 05:40:00,
2015-08-30 01:46:00,74.0,66.7,30.02,East,88,0.0,3.0,78,0.00,,,0.00,Wunderground v.1.13,2015-08-30 05:46:00,
2015-08-30 01:52:00,73.5,66.6,30.02,East,88,0.0,3.0,79,0.00,,,0.00,Wunderground v.1.13,2015-08-30 05:52:00,
2015-08-30 01:58:00,73.2,67.0,30.02,East,88,0.0,3.0,81,0.00,,,0.00,Wunderground v.1.13,2015-08-30 05:58:00,
2015-08-30 02:04:00,73.0,66.8,30.02,East,88,0.0,3.0,81,0.00,,,0.00,Wunderground v.1.13,2015-08-30 06:04:00,
2015-08-30 02:10:00,73.2,67.0,30.02,East,88,0.0,3.0,81,0.00,,,0.00,Wunderground v.1.13,2015-08-30 06:10:00,
2015-08-30 02:16:00,73.3,66.8,30.02,East,88,0.0,3.0,80,0.00,,,0.00,Wunderground v.1.13,2015-08-30 06:16:00,
2015-08-30 02:22:00,73.2,67.0,30.02,East,88,0.0,3.0,81,0.00,,,0.00,Wunderground v.1.13,2015-08-30 06:22:00,
2015-08-30 02:28:00,73.2,67.0,30.02,East,88,0.0,3.0,81,0.00,,,0.00,Wunderground v.1.13,2015-08-30 06:28:00,
2015-08-30 02:34:00,73.5,66.6,30.02,East,88,0.0,3.0,79,0.00,,,0.00,Wunderground v.1.13,2015-08-30 06:34:00,
2015-08-30 02:40:00,73.5,66.6,30.01,East,88,0.0,3.0,79,0.00,,,0.00,Wunderground v.1.13,2015-08-30 06:40:00,
2015-08-30 02:46:00,73.7,66.8,30.01,East,83,0.0,3.0,79,0.00,,,0.00,Wunderground v.1.13,2015-08-30 06:46:00,
2015-08-30 02:52:00,73.5,66.2,30.01,East,83,0.0,3.0,78,0.00,,,0.00,Wunderground v.1.13,2015-08-30 06:52:00,
2015-08-30 02:58:00,73.3,66.4,30.01,East,83,0.0,3.0,79,0.00,,,0.00,Wunderground v.1.13,2015-08-30 06:58:00,
2015-08-30 03:04:00,73.2,66.3,30.01,East,83,0.0,3.0,79,0.00,,,0.00,Wunderground v.1.13,2015-08-30 07:04:00,
2015-08-30 03:10:00,73.2,66.3,30.01,East,83,0.0,3.0,79,0.00,,,0.00,Wunderground v.1.13,2015-08-30 07:10:00,
2015-08-30 03:16:00,72.8,66.3,30.01,East,83,0.0,3.0,80,0.00,,,0.00,Wunderground v.1.13,2015-08-30 07:16:00,
2015-08-30 03:18:00,72.7,66.5,30.01,East,83,0.0,3.0,81,0.00,,,0.00,Wunderground v.1.13,2015-08-30 07:18:00,
2015-08-30 03:24:00,72.1,66.3,30.01,East,85,0.0,3.0,82,0.00,,,0.00,Wunderground v.1.13,2015-08-30 07:24:00,
2015-08-30 03:30:00,71.8,66.4,30.01,East,83,0.0,3.0,83,0.00,,,0.00,Wunderground v.1.13,2015-08-30 07:30:00,
2015-08-30 03:36:00,71.5,66.1,30.01,East,83,0.0,3.0,83,0.00,,,0.00,Wunderground v.1.13,2015-08-30 07:36:00,
2015-08-30 03:42:00,71.5,66.4,30.01,East,83,0.0,3.0,84,0.00,,,0.00,Wunderground v.1.13,2015-08-30 07:42:00,
2015-08-30 03:48:00,71.6,66.5,30.01,East,83,0.0,3.0,84,0.00,,,0.00,Wunderground v.1.13,2015-08-30 07:48:00,
2015-08-30 03:54:00,71.5,66.4,30.01,East,83,0.0,3.0,84,0.00,,,0.00,Wunderground v.1.13,2015-08-30 07:54:00,
2015-08-30 04:00:00,71.1,65.7,30.01,East,83,0.0,3.0,83,0.00,,,0.00,Wunderground v.1.13,2015-08-30 08:00:00,
2015-08-30 04:06:00,70.8,65.7,30.02,East,83,0.0,3.0,84,0.00,,,0.00,Wunderground v.1.13,2015-08-30 08:06:00,
2015-08-30 04:08:00,70.8,66.1,30.02,East,83,0.0,3.0,85,0.00,,,0.00,Wunderground v.1.13,2015-08-30 08:08:00,
2015-08-30 04:14:00,70.8,65.7,30.02,East,83,1.0,3.0,84,0.00,,,0.00,Wunderground v.1.13,2015-08-30 08:14:00,
2015-08-30 04:20:00,70.8,65.7,30.02,East,83,1.0,3.0,84,0.00,,,0.00,Wunderground v.1.13,2015-08-30 08:20:00,
2015-08-30 04:26:00,70.6,65.5,30.02,East,83,0.0,3.0,84,0.00,,,0.00,Wunderground v.1.13,2015-08-30 08:26:00,
2015-08-30 04:32:00,70.4,65.7,30.02,East,83,0.0,3.0,85,0.00,,,0.00,Wunderground v.1.13,2015-08-30 08:32:00,
2015-08-30 04:38:00,70.3,65.6,30.02,East,83,0.0,3.0,85,0.00,,,0.00,Wunderground v.1.13,2015-08-30 08:38:00,
2015-08-30 04:44:00,70.1,65.7,30.02,East,83,0.0,3.0,86,0.00,,,0.00,Wunderground v.1.13,2015-08-30 08:44:00,
2015-08-30 04:50:00,70.1,65.7,30.01,East,83,0.0,3.0,86,0.00,,,0.00,Wunderground v.1.13,2015-08-30 08:50:00,
2015-08-30 04:56:00,69.9,65.5,30.01,East,83,0.0,3.0,86,0.00,,,0.00,Wunderground v.1.13,2015-08-30 08:56:00,
2015-08-30 05:02:00,69.9,65.2,30.01,East,83,0.0,3.0,85,0.00,,,0.00,Wunderground v.1.13,2015-08-30 09:02:00,
2015-08-30 05:08:00,69.8,65.4,30.02,East,83,0.0,3.0,86,0.00,,,0.00,Wunderground v.1.13,2015-08-30 09:08:00,
2015-08-30 05:14:00,69.4,65.0,30.02,East,83,0.0,3.0,86,0.00,,,0.00,Wunderground v.1.13,2015-08-30 09:14:00,
2015-08-30 05:20:00,69.3,64.9,30.02,East,83,0.0,3.0,86,0.00,,,0.00,Wunderground v.1.13,2015-08-30 09:20:00,
2015-08-30 05:26:00,69.1,65.1,30.02,East,83,0.0,3.0,87,0.00,,,0.00,Wunderground v.1.13,2015-08-30 09:26:00,
2015-08-30 05:32:00,68.9,65.2,30.02,East,83,0.0,3.0,88,0.00,,,0.00,Wunderground v.1.13,2015-08-30 09:32:00,
2015-08-30 05:38:00,68.9,65.2,30.03,East,83,0.0,3.0,88,0.00,,,0.00,Wunderground v.1.13,2015-08-30 09:38:00,
2015-08-30 05:44:00,69.1,65.4,30.03,East,83,0.0,3.0,88,0.00,,,0.00,Wunderground v.1.13,2015-08-30 09:44:00,
2015-08-30 05:50:00,69.4,65.7,30.03,East,83,0.0,3.0,88,0.00,,,0.00,Wunderground v.1.13,2015-08-30 09:50:00,
2015-08-30 05:56:00,69.4,65.4,30.03,East,83,0.0,3.0,87,0.00,,,0.00,Wunderground v.1.13,2015-08-30 09:56:00,
2015-08-30 06:02:00,69.4,65.4,30.03,East,83,0.0,3.0,87,0.00,,,0.00,Wunderground v.1.13,2015-08-30 10:02:00,
2015-08-30 06:08:00,69.4,65.0,30.03,East,83,0.0,3.0,86,0.00,,,0.00,Wunderground v.1.13,2015-08-30 10:08:00,
2015-08-30 06:14:00,69.4,65.0,30.03,East,83,0.0,3.0,86,0.00,,,0.00,Wunderground v.1.13,2015-08-30 10:14:00,
2015-08-30 06:20:00,69.4,65.0,30.03,East,83,0.0,3.0,86,0.00,,,0.00,Wunderground v.1.13,2015-08-30 10:20:00,
2015-08-30 06:26:00,69.3,64.9,30.03,East,83,0.0,3.0,86,0.00,,,0.00,Wunderground v.1.13,2015-08-30 10:26:00,
2015-08-30 06:32:00,68.9,64.5,30.03,East,83,0.0,3.0,86,0.00,,,0.00,Wunderground v.1.13,2015-08-30 10:32:00,
2015-08-30 06:38:00,68.6,64.6,30.04,East,83,0.0,3.0,87,0.00,,,0.00,Wunderground v.1.13,2015-08-30 10:38:00,
2015-08-30 06:44:00,68.6,64.6,30.04,East,83,0.0,3.0,87,0.00,,,0.00,Wunderground v.1.13,2015-08-30 10:44:00,
2015-08-30 06:50:00,68.4,64.4,30.04,East,83,0.0,3.0,87,0.00,,,0.00,Wunderground v.1.13,2015-08-30 10:50:00,
2015-08-30 06:56:00,68.4,64.7,30.04,East,83,0.0,3.0,88,0.00,,,0.00,Wunderground v.1.13,2015-08-30 10:56:00,
2015-08-30 07:02:00,68.4,64.7,30.04,East,83,0.0,3.0,88,0.00,,,0.00,Wunderground v.1.13,2015-08-30 11:02:00,
2015-08-30 07:08:00,68.4,64.7,30.05,East,83,0.0,3.0,88,0.00,,,0.00,Wunderground v.1.13,2015-08-30 11:08:00,
2015-08-30 07:14:00,68.6,64.9,30.05,East,83,0.0,3.0,88,0.00,,,0.00,Wunderground v.1.13,2015-08-30 11:14:00,
2015-08-30 07:20:00,68.4,64.7,30.05,East,83,0.0,3.0,88,0.00,,,0.00,Wunderground v.1.13,2015-08-30 11:20:00,
2015-08-30 07:26:00,68.3,64.6,30.05,East,83,0.0,3.0,88,0.00,,,0.00,Wunderground v.1.13,2015-08-30 11:26:00,
2015-08-30 07:32:00,68.3,64.6,30.05,East,83,0.0,3.0,88,0.00,,,0.00,Wunderground v.1.13,2015-08-30 11:32:00,
2015-08-30 07:38:00,68.3,64.6,30.05,East,83,0.0,3.0,88,0.00,,,0.00,Wunderground v.1.13,2015-08-30 11:38:00,
2015-08-30 07:44:00,68.3,64.6,30.05,East,83,0.0,3.0,88,0.00,,,0.00,Wunderground v.1.13,2015-08-30 11:44:00,
2015-08-30 07:50:00,68.4,64.7,30.05,East,83,0.0,3.0,88,0.00,,,0.00,Wunderground v.1.13,2015-08-30 11:50:00,
2015-08-30 07:56:00,68.4,64.7,30.05,East,83,1.0,3.0,88,0.00,,,0.00,Wunderground v.1.13,2015-08-30 11:56:00,
2015-08-30 08:02:00,68.6,64.9,30.05,East,83,2.0,3.0,88,0.00,,,0.00,Wunderground v.1.13,2015-08-30 12:02:00,
2015-08-30 08:08:00,68.9,65.2,30.06,East,83,1.0,3.0,88,0.00,,,0.00,Wunderground v.1.13,2015-08-30 12:08:00,
2015-08-30 08:14:00,68.9,64.9,30.06,East,83,0.0,3.0,87,0.00,,,0.00,Wunderground v.1.13,2015-08-30 12:14:00,
2015-08-30 08:20:00,68.9,64.9,30.06,East,83,0.0,3.0,87,0.00,,,0.00,Wunderground v.1.13,2015-08-30 12:20:00,
2015-08-30 08:26:00,68.9,64.9,30.06,East,83,0.0,3.0,87,0.00,,,0.00,Wunderground v.1.13,2015-08-30 12:26:00,
2015-08-30 08:32:00,69.1,65.1,30.06,East,83,0.0,3.0,87,0.00,,,0.00,Wunderground v.1.13,2015-08-30 12:32:00,
2015-08-30 08:34:00,69.1,65.1,30.06,East,83,0.0,3.0,87,0.00,,,0.00,Wunderground v.1.13,2015-08-30 12:34:00,
2015-08-30 08:40:00,69.4,65.4,30.06,East,83,0.0,3.0,87,0.00,,,0.00,Wunderground v.1.13,2015-08-30 12:40:00,
2015-08-30 08:46:00,69.4,65.4,30.06,East,83,0.0,3.0,87,0.00,,,0.00,Wunderground v.1.13,2015-08-30 12:46:00,
2015-08-30 08:52:00,69.6,65.6,30.06,East,83,0.0,3.0,87,0.00,,,0.00,Wunderground v.1.13,2015-08-30 12:52:00,
2015-08-30 08:58:00,69.6,65.6,30.06,East,83,0.0,3.0,87,0.00,,,0.00,Wunderground v.1.13,2015-08-30 12:58:00,
2015-08-30 09:04:00,69.8,65.8,30.06,East,83,0.0,3.0,87,0.00,,,0.00,Wunderground v.1.13,2015-08-30 13:04:00,
2015-08-30 09:10:00,70.3,66.2,30.06,East,85,0.0,3.0,87,0.00,,,0.00,Wunderground v.1.13,2015-08-30 13:10:00,
2015-08-30 09:16:00,70.8,66.4,30.06,East,85,1.0,3.0,86,0.00,,,0.00,Wunderground v.1.13,2015-08-30 13:16:00,
2015-08-30 09:22:00,71.6,66.2,30.07,East,85,1.0,3.0,83,0.00,,,0.00,Wunderground v.1.13,2015-08-30 13:22:00,
2015-08-30 09:28:00,72.1,66.3,30.07,East,88,2.0,3.0,82,0.00,,,0.00,Wunderground v.1.13,2015-08-30 13:28:00,
2015-08-30 09:34:00,72.7,66.5,30.07,East,100,2.0,3.0,81,0.00,,,0.00,Wunderground v.1.13,2015-08-30 13:34:00,
2015-08-30 09:40:00,73.3,66.4,30.07,ENE,78,1.0,3.0,79,0.00,,,0.00,Wunderground v.1.13,2015-08-30 13:40:00,
2015-08-30 09:46:00,73.9,67.0,30.07,East,79,1.0,3.0,79,0.00,,,0.00,Wunderground v.1.13,2015-08-30 13:46:00,
2015-08-30 09:52:00,74.6,66.9,30.07,NE,47,0.0,3.0,77,0.00,,,0.00,Wunderground v.1.13,2015-08-30 13:52:00,
2015-08-30 09:58:00,75.1,66.6,30.07,NE,55,0.0,3.0,75,0.00,,,0.00,Wunderground v.1.13,2015-08-30 13:58:00,
2015-08-30 10:04:00,75.8,66.9,30.07,NNE,31,1.0,3.0,74,0.00,,,0.00,Wunderground v.1.13,2015-08-30 14:04:00,
2015-08-30 10:10:00,76.3,66.6,30.07,ENE,64,3.0,3.0,72,0.00,,,0.00,Wunderground v.1.13,2015-08-30 14:10:00,
2015-08-30 10:16:00,76.8,67.1,30.07,NE,38,2.0,6.0,72,0.00,,,0.00,Wunderground v.1.13,2015-08-30 14:16:00,
2015-08-30 10:22:00,77.4,67.3,30.07,NE,52,1.0,3.0,71,0.00,,,0.00,Wunderground v.1.13,2015-08-30 14:22:00,
2015-08-30 10:28:00,78.1,67.1,30.07,NE,48,1.0,3.0,69,0.00,,,0.00,Wunderground v.1.13,2015-08-30 14:28:00,
2015-08-30 10:34:00,78.6,67.2,30.07,East,96,1.0,4.0,68,0.00,,,0.00,Wunderground v.1.13,2015-08-30 14:34:00,
2015-08-30 10:40:00,78.8,67.3,30.06,NE,41,2.0,5.0,68,0.00,,,0.00,Wunderground v.1.13,2015-08-30 14:40:00,
2015-08-30 10:44:00,79.0,67.1,30.06,NE,35,3.0,3.0,67,0.00,,,0.00,Wunderground v.1.13,2015-08-30 14:44:00,
2015-08-30 10:50:00,79.8,67.4,30.06,ENE,71,2.0,4.0,66,0.00,,,0.00,Wunderground v.1.13,2015-08-30 14:50:00,
2015-08-30 10:56:00,80.3,67.5,30.06,ENE,72,1.0,3.0,65,0.00,,,0.00,Wunderground v.1.13,2015-08-30 14:56:00,
2015-08-30 11:02:00,80.9,67.6,30.06,ESE,104,1.0,3.0,64,0.00,,,0.00,Wunderground v.1.13,2015-08-30 15:02:00,
2015-08-30 11:08:00,81.2,67.4,30.06,ENE,62,1.0,3.0,63,0.00,,,0.00,Wunderground v.1.13,2015-08-30 15:08:00,
2015-08-30 11:14:00,82.0,67.2,30.06,ENE,64,1.0,3.0,61,0.00,,,0.00,Wunderground v.1.13,2015-08-30 15:14:00,
2015-08-30 11:20:00,82.2,67.4,30.06,ENE,75,0.0,3.0,61,0.00,,,0.00,Wunderground v.1.13,2015-08-30 15:20:00,
2015-08-30 11:26:00,82.2,67.4,30.06,East,92,0.0,3.0,61,0.00,,,0.00,Wunderground v.1.13,2015-08-30 15:26:00,
2015-08-30 11:32:00,82.6,67.8,30.06,East,89,0.0,3.0,61,0.00,,,0.00,Wunderground v.1.13,2015-08-30 15:32:00,
2015-08-30 11:38:00,82.8,68.0,30.06,ESE,114,0.0,4.0,61,0.00,,,0.00,Wunderground v.1.13,2015-08-30 15:38:00,
2015-08-30 11:44:00,83.0,68.2,30.06,ESE,114,1.0,3.0,61,0.00,,,0.00,Wunderground v.1.13,2015-08-30 15:44:00,
2015-08-30 11:50:00,83.4,68.1,30.06,North,0,1.0,3.0,60,0.00,,,0.00,Wunderground v.1.13,2015-08-30 15:50:00,
2015-08-30 11:56:00,84.3,67.9,30.06,NE,41,1.0,3.0,58,0.00,,,0.00,Wunderground v.1.13,2015-08-30 15:56:00,
2015-08-30 12:02:00,84.9,67.5,30.06,East,100,1.0,4.0,56,0.00,,,0.00,Wunderground v.1.13,2015-08-30 16:02:00,
2015-08-30 12:08:00,85.1,67.6,30.06,East,99,3.0,3.0,56,0.00,,,0.00,Wunderground v.1.13,2015-08-30 16:08:00,
2015-08-30 12:14:00,85.5,67.5,30.06,SE,136,2.0,6.0,55,0.00,,,0.00,Wunderground v.1.13,2015-08-30 16:14:00,
2015-08-30 12:20:00,85.9,67.3,30.05,NNE,28,2.0,3.0,54,0.00,,,0.00,Wunderground v.1.13,2015-08-30 16:20:00,
2015-08-30 12:26:00,87.0,67.8,30.05,NE,44,2.0,3.0,53,0.00,,,0.00,Wunderground v.1.13,2015-08-30 16:26:00,
2015-08-30 12:32:00,87.6,67.2,30.05,East,97,2.0,5.0,51,0.00,,,0.00,Wunderground v.1.13,2015-08-30 16:32:00,